Time,TemperatureF,DewpointF,PressureIn,WindDirection,WindDirectionDegrees,WindSpeedMPH,WindSpeedGustMPH,Humidity,HourlyPrecipIn,Conditions,Clouds,dailyrainin,SoftwareType,DateUTC
2013-05-07 00:02:00,65.0,64.0,30.01,ENE,63,0.0,-999.0,96,-99.99,,,-99.99,,2013-05-07 10:02:00,
2013-05-07 00:12:00,65.0,64.0,30.01,ENE,63,0.0,-999.0,96,-99.99,,,-99.99,,2013-05-07 10:12:00,
2013-05-07 00:22:00,65.0,64.0,30.01,ENE,63,1.0,-999.0,96,-99.99,,,-99.99,,2013-05-07 10:22:00,
2013-05-07 00:32:00,65.0,64.0,30.00,ENE,63,0.0,-999.0,96,-99.99,,,-99.99,,2013-05-07 10:32:00,
2013-05-07 00:42:00,65.0,64.0,30.00,ENE,74,0.0,-999.0,96,-99.99,,,-99.99,,2013-05-07 10:42:00,
2013-05-07 00:52:00,65.0,64.0,30.00,ENE,74,0.0,-999.0,96,-99.99,,,-99.99,,2013-05-07 10:52:00,
2013-05-07 01:02:00,65.0,64.0,29.99,ENE,71,0.0,-999.0,96,-99.99,,,-99.99,,2013-05-07 11:02:00,
2013-05-07 01:11:00,65.0,64.0,29.99,ENE,71,0.0,-999.0,96,-99.99,,,-99.99,,2013-05-07 11:11:00,
2013-05-07 01:21:00,65.0,64.0,29.99,ENE,71,0.0,-999.0,96,-99.99,,,-99.99,,2013-05-07 11:21:00,
2013-05-07 01:32:00,65.0,64.0,29.98,ENE,68,0.0,-999.0,96,-99.99,,,-99.99,,2013-05-07 11:32:00,
2013-05-07 01:42:00,65.0,64.0,29.98,ENE,68,0.0,-999.0,96,-99.99,,,-99.99,,2013-05-07 11:42:00,
2013-05-07 01:51:00,65.0,64.0,29.98,ENE,68,0.0,-999.0,96,-99.99,,,-99.99,,2013-05-07 11:51:00,
2013-05-07 02:01:00,65.0,64.0,29.97,ENE,68,0.0,-999.0,96,-99.99,,,-99.99,,2013-05-07 12:01:00,
2013-05-07 02:11:00,65.0,64.0,29.97,ENE,68,0.0,-999.0,96,-99.99,,,-99.99,,2013-05-07 12:11:00,
2013-05-07 02:21:00,65.0,64.0,29.97,ENE,78,0.0,-999.0,96,-99.99,,,-99.99,,2013-05-07 12:21:00,
2013-05-07 02:32:00,65.0,64.0,29.96,ENE,67,0.0,-999.0,95,-99.99,,,-99.99,,2013-05-07 12:32:00,
2013-05-07 02:41:00,65.0,64.0,29.96,ENE,67,0.0,-999.0,95,-99.99,,,-99.99,,2013-05-07 12:41:00,
2013-05-07 02:52:00,64.0,63.0,29.96,ENE,67,0.0,-999.0,95,-99.99,,,-99.99,,2013-05-07 12:52:00,
2013-05-07 03:02:00,65.0,64.0,29.96,ENE,67,0.0,-999.0,95,-99.99,,,-99.99,,2013-05-07 13:02:00,
2013-05-07 03:11:00,65.0,64.0,29.96,ENE,67,0.0,-999.0,95,-99.99,,,-99.99,,2013-05-07 13:11:00,
2013-05-07 03:21:00,64.0,62.0,29.96,ENE,67,0.0,-999.0,94,-99.99,,,-99.99,,2013-05-07 13:21:00,
2013-05-07 03:32:00,64.0,63.0,29.95,ENE,67,0.0,-999.0,95,-99.99,,,-99.99,,2013-05-07 13:32:00,
2013-05-07 03:42:00,64.0,63.0,29.95,ENE,67,0.0,-999.0,95,-99.99,,,-99.99,,2013-05-07 13:42:00,
2013-05-07 03:52:00,64.0,63.0,29.96,ENE,67,0.0,-999.0,95,-99.99,,,-99.99,,2013-05-07 13:52:00,
2013-05-07 04:01:00,64.0,63.0,29.96,ENE,67,0.0,-999.0,95,-99.99,,,-99.99,,2013-05-07 14:01:00,
2013-05-07 04:11:00,64.0,63.0,29.96,ENE,67,0.0,-999.0,95,-99.99,,,-99.99,,2013-05-07 14:11:00,
2013-05-07 04:21:00,64.0,63.0,29.96,ENE,67,0.0,-999.0,95,-99.99,,,-99.99,,2013-05-07 14:21:00,
2013-05-07 04:31:00,64.0,62.0,29.96,ENE,67,0.0,-999.0,94,-99.99,,,-99.99,,2013-05-07 14:31:00,
2013-05-07 04:42:00,64.0,62.0,29.96,ENE,67,0.0,-999.0,94,-99.99,,,-99.99,,2013-05-07 14:42:00,
2013-05-07 04:52:00,64.0,62.0,29.96,ENE,67,0.0,-999.0,94,-99.99,,,-99.99,,2013-05-07 14:52:00,
2013-05-07 05:01:00,64.0,62.0,29.96,ENE,67,0.0,-999.0,93,-99.99,,,-99.99,,2013-05-07 15:01:00,
2013-05-07 05:11:00,64.0,62.0,29.96,ENE,67,0.0,-999.0,93,-99.99,,,-99.99,,2013-05-07 15:11:00,
2013-05-07 05:21:00,65.0,63.0,29.97,East,80,0.0,-999.0,92,-99.99,,,-99.99,,2013-05-07 15:21:00,
2013-05-07 05:33:00,65.0,63.0,29.97,East,80,0.0,-999.0,92,-99.99,,,-99.99,,2013-05-07 15:33:00,
2013-05-07 05:42:00,65.0,63.0,29.97,East,80,0.0,-999.0,92,-99.99,,,-99.99,,2013-05-07 15:42:00,
2013-05-07 05:52:00,65.0,63.0,29.97,East,80,0.0,-999.0,92,-99.99,,,-99.99,,2013-05-07 15:52:00,
2013-05-07 06:03:00,64.0,62.0,29.98,ENE,67,0.0,-999.0,93,-99.99,,,-99.99,,2013-05-07 16:03:00,
2013-05-07 06:12:00,64.0,62.0,29.98,ENE,67,0.0,-999.0,93,-99.99,,,-99.99,,2013-05-07 16:12:00,
2013-05-07 06:22:00,63.0,61.0,29.98,ENE,67,0.0,-999.0,94,-99.99,,,-99.99,,2013-05-07 16:22:00,
2013-05-07 06:32:00,63.0,61.0,29.99,ENE,67,2.0,-999.0,93,-99.99,,,-99.99,,2013-05-07 16:32:00,
2013-05-07 06:41:00,63.0,61.0,29.99,ENE,67,2.0,-999.0,93,-99.99,,,-99.99,,2013-05-07 16:41:00,
2013-05-07 06:51:00,63.0,61.0,29.99,ENE,67,2.0,-999.0,93,-99.99,,,-99.99,,2013-05-07 16:51:00,
2013-05-07 07:01:00,64.0,62.0,30.00,ENE,65,2.0,-999.0,93,-99.99,,,-99.99,,2013-05-07 17:01:00,
2013-05-07 07:12:00,64.0,62.0,30.00,ENE,65,2.0,-999.0,93,-99.99,,,-99.99,,2013-05-07 17:12:00,
2013-05-07 07:21:00,65.0,63.0,30.01,ENE,59,2.0,-999.0,92,-99.99,,,-99.99,,2013-05-07 17:21:00,
2013-05-07 07:31:00,67.0,64.0,30.01,ENE,59,1.0,-999.0,91,-99.99,,,-99.99,,2013-05-07 17:31:00,
2013-05-07 07:41:00,67.0,64.0,30.01,ENE,59,1.0,-999.0,91,-99.99,,,-99.99,,2013-05-07 17:41:00,
2013-05-07 07:52:00,67.0,64.0,30.01,ENE,59,1.0,-999.0,91,-99.99,,,-99.99,,2013-05-07 17:52:00,
2013-05-07 08:01:00,71.0,67.0,30.01,ENE,59,0.0,-999.0,87,-99.99,,,-99.99,,2013-05-07 18:01:00,
2013-05-07 08:11:00,71.0,67.0,30.01,ENE,59,0.0,-999.0,87,-99.99,,,-99.99,,2013-05-07 18:11:00,
2013-05-07 08:21:00,72.0,66.0,30.02,ENE,59,0.0,-999.0,81,-99.99,,,-99.99,,2013-05-07 18:21:00,
2013-05-07 08:31:00,72.0,66.0,30.02,NE,52,0.0,-999.0,82,-99.99,,,-99.99,,2013-05-07 18:31:00,
2013-05-07 08:41:00,72.0,66.0,30.02,NE,52,0.0,-999.0,82,-99.99,,,-99.99,,2013-05-07 18:41:00,
2013-05-07 08:51:00,73.0,67.0,30.02,NE,52,0.0,-999.0,81,-99.99,,,-99.99,,2013-05-07 18:51:00,
2013-05-07 09:02:00,74.0,67.0,30.02,WNW,301,0.0,-999.0,78,-99.99,,,-99.99,,2013-05-07 19:02:00,
2013-05-07 09:11:00,74.0,67.0,30.02,WNW,301,0.0,-999.0,78,-99.99,,,-99.99,,2013-05-07 19:11:00,
2013-05-07 09:21:00,74.0,67.0,30.03,West,261,1.0,-999.0,78,-99.99,,,-99.99,,2013-05-07 19:21:00,
2013-05-07 09:31:00,75.0,67.0,30.03,WNW,300,1.0,-999.0,75,-99.99,,,-99.99,,2013-05-07 19:31:00,
2013-05-07 09:41:00,75.0,67.0,30.03,WNW,300,1.0,-999.0,75,-99.99,,,-99.99,,2013-05-07 19:41:00,
2013-05-07 09:52:00,75.0,66.0,30.03,NW,315,1.0,-999.0,74,-99.99,,,-99.99,,2013-05-07 19:52:00,
2013-05-07 10:01:00,77.0,68.0,30.03,WSW,255,2.0,-999.0,75,-99.99,,,-99.99,,2013-05-07 20:01:00,
2013-05-07 10:11:00,77.0,68.0,30.03,WSW,255,2.0,-999.0,75,-99.99,,,-99.99,,2013-05-07 20:11:00,
2013-05-07 10:21:00,76.0,68.0,30.03,NW,324,2.0,-999.0,77,-99.99,,,-99.99,,2013-05-07 20:21:00,
2013-05-07 10:32:00,76.0,68.0,30.03,West,280,2.0,-999.0,76,-99.99,,,-99.99,,2013-05-07 20:32:00,
2013-05-07 10:41:00,76.0,68.0,30.03,West,280,2.0,-999.0,76,-99.99,,,-99.99,,2013-05-07 20:41:00,
2013-05-07 10:51:00,75.0,68.0,30.03,NNW,327,2.0,-999.0,78,-99.99,,,-99.99,,2013-05-07 20:51:00,
2013-05-07 11:01:00,76.0,68.0,30.02,SSW,211,2.0,-999.0,76,-99.99,,,-99.99,,2013-05-07 21:01:00,
2013-05-07 11:11:00,76.0,68.0,30.02,SSW,211,2.0,-999.0,76,-99.99,,,-99.99,,2013-05-07 21:11:00,
2013-05-07 11:21:00,77.0,68.0,30.02,WSW,255,3.0,-999.0,74,-99.99,,,-99.99,,2013-05-07 21:21:00,
2013-05-07 11:32:00,77.0,68.0,30.01,West,269,3.0,-999.0,74,-99.99,,,-99.99,,2013-05-07 21:32:00,
2013-05-07 11:42:00,77.0,68.0,30.01,West,269,3.0,-999.0,74,-99.99,,,-99.99,,2013-05-07 21:42:00,
2013-05-07 11:52:00,77.0,68.0,30.01,SW,234,3.0,-999.0,73,-99.99,,,-99.99,,2013-05-07 21:52:00,
2013-05-07 12:02:00,77.0,68.0,30.01,SW,229,3.0,-999.0,73,-99.99,,,-99.99,,2013-05-07 22:02:00,
2013-05-07 12:13:00,77.0,68.0,30.01,SW,229,3.0,-999.0,73,-99.99,,,-99.99,,2013-05-07 22:13:00,
2013-05-07 12:22:00,77.0,68.0,30.00,SW,223,1.0,-999.0,74,-99.99,,,-99.99,,2013-05-07 22:22:00,
2013-05-07 12:32:00,78.0,68.0,30.00,WSW,254,2.0,-999.0,71,-99.99,,,-99.99,,2013-05-07 22:32:00,
2013-05-07 12:42:00,78.0,68.0,30.00,WSW,254,2.0,-999.0,71,-99.99,,,-99.99,,2013-05-07 22:42:00,
2013-05-07 12:52:00,78.0,68.0,30.00,SSW,209,3.0,-999.0,71,-99.99,,,-99.99,,2013-05-07 22:52:00,
2013-05-07 13:02:00,78.0,68.0,29.99,SW,215,2.0,-999.0,71,-99.99,,,-99.99,,2013-05-07 23:02:00,
2013-05-07 13:11:00,78.0,68.0,29.99,SW,215,2.0,-999.0,71,-99.99,,,-99.99,,2013-05-07 23:11:00,
2013-05-07 13:21:00,78.0,68.0,29.99,SW,236,3.0,-999.0,72,-99.99,,,-99.99,,2013-05-07 23:21:00,
2013-05-07 13:32:00,78.0,68.0,29.98,South,182,3.0,-999.0,71,-99.99,,,-99.99,,2013-05-07 23:32:00,
2013-05-07 13:41:00,78.0,68.0,29.98,South,182,3.0,-999.0,71,-99.99,,,-99.99,,2013-05-07 23:41:00,
2013-05-07 13:52:00,79.0,68.0,29.98,WSW,254,4.0,-999.0,69,-99.99,,,-99.99,,2013-05-07 23:52:00,
2013-05-07 14:01:00,79.0,68.0,29.98,NW,315,4.0,-999.0,69,-99.99,,,-99.99,,2013-05-08 00:01:00,
2013-05-07 14:11:00,79.0,68.0,29.98,NW,315,4.0,-999.0,69,-99.99,,,-99.99,,2013-05-08 00:11:00,
2013-05-07 14:21:00,80.0,68.0,29.98,WSW,237,5.0,-999.0,67,-99.99,,,-99.99,,2013-05-08 00:21:00,
2013-05-07 14:32:00,79.0,68.0,29.98,SW,232,4.0,-999.0,68,-99.99,,,-99.99,,2013-05-08 00:32:00,
2013-05-07 14:41:00,79.0,68.0,29.98,SW,232,4.0,-999.0,68,-99.99,,,-99.99,,2013-05-08 00:41:00,
2013-05-07 14:51:00,78.0,67.0,29.98,SSW,213,4.0,-999.0,69,-99.99,,,-99.99,,2013-05-08 00:51:00,
2013-05-07 15:02:00,78.0,67.0,29.97,West,269,3.0,-999.0,69,-99.99,,,-99.99,,2013-05-08 01:02:00,
2013-05-07 15:11:00,78.0,67.0,29.97,West,269,3.0,-999.0,69,-99.99,,,-99.99,,2013-05-08 01:11:00,
2013-05-07 15:21:00,79.0,68.0,29.97,West,279,4.0,-999.0,68,-99.99,,,-99.99,,2013-05-08 01:21:00,
2013-05-07 15:31:00,79.0,67.0,29.96,SW,220,4.0,-999.0,67,-99.99,,,-99.99,,2013-05-08 01:31:00,
2013-05-07 15:42:00,79.0,67.0,29.96,SW,220,4.0,-999.0,67,-99.99,,,-99.99,,2013-05-08 01:42:00,
2013-05-07 15:52:00,80.0,67.0,29.96,South,180,3.0,-999.0,65,-99.99,,,-99.99,,2013-05-08 01:52:00,
2013-05-07 16:01:00,79.0,66.0,29.96,West,273,3.0,-999.0,65,-99.99,,,-99.99,,2013-05-08 02:01:00,
2013-05-07 16:11:00,79.0,66.0,29.96,West,273,3.0,-999.0,65,-99.99,,,-99.99,,2013-05-08 02:11:00,
2013-05-07 16:21:00,79.0,66.0,29.96,SW,232,2.0,-999.0,65,-99.99,,,-99.99,,2013-05-08 02:21:00,
2013-05-07 16:31:00,79.0,66.0,29.96,WSW,238,2.0,-999.0,64,-99.99,,,-99.99,,2013-05-08 02:31:00,
2013-05-07 16:42:00,79.0,66.0,29.96,WSW,238,2.0,-999.0,64,-99.99,,,-99.99,,2013-05-08 02:42:00,
2013-05-07 16:51:00,80.0,67.0,29.96,NW,319,3.0,-999.0,64,-99.99,,,-99.99,,2013-05-08 02:51:00,
2013-05-07 17:01:00,78.0,67.0,29.96,SSW,209,2.0,-999.0,69,-99.99,,,-99.99,,2013-05-08 03:01:00,
2013-05-07 17:11:00,78.0,67.0,29.96,SSW,209,2.0,-999.0,69,-99.99,,,-99.99,,2013-05-08 03:11:00,
2013-05-07 17:21:00,78.0,67.0,29.96,West,263,4.0,-999.0,70,-99.99,,,-99.99,,2013-05-08 03:21:00,
2013-05-07 17:32:00,78.0,67.0,29.96,NW,321,3.0,-999.0,70,-99.99,,,-99.99,,2013-05-08 03:32:00,
2013-05-07 17:43:00,78.0,67.0,29.96,NW,321,3.0,-999.0,70,-99.99,,,-99.99,,2013-05-08 03:43:00,
2013-05-07 17:52:00,78.0,68.0,29.96,NNW,347,3.0,-999.0,71,-99.99,,,-99.99,,2013-05-08 03:52:00,
2013-05-07 18:02:00,78.0,68.0,29.96,NNW,344,3.0,-999.0,71,-99.99,,,-99.99,,2013-05-08 04:02:00,
2013-05-07 18:12:00,78.0,68.0,29.96,NNW,344,3.0,-999.0,71,-99.99,,,-99.99,,2013-05-08 04:12:00,
2013-05-07 18:22:00,77.0,68.0,29.97,NW,304,3.0,-999.0,73,-99.99,,,-99.99,,2013-05-08 04:22:00,
2013-05-07 18:33:00,76.0,69.0,29.97,North,5,4.0,-999.0,78,-99.99,,,-99.99,,2013-05-08 04:33:00,
2013-05-07 18:42:00,76.0,69.0,29.97,North,5,4.0,-999.0,78,-99.99,,,-99.99,,2013-05-08 04:42:00,
2013-05-07 18:52:00,75.0,68.0,29.98,NNW,346,4.0,-999.0,80,-99.99,,,-99.99,,2013-05-08 04:52:00,
2013-05-07 19:02:00,74.0,68.0,29.98,NW,313,4.0,-999.0,82,-99.99,,,-99.99,,2013-05-08 05:02:00,
2013-05-07 19:12:00,74.0,68.0,29.98,NW,313,4.0,-999.0,82,-99.99,,,-99.99,,2013-05-08 05:12:00,
2013-05-07 19:22:00,73.0,67.0,29.99,NNW,345,3.0,-999.0,82,-99.99,,,-99.99,,2013-05-08 05:22:00,
2013-05-07 19:32:00,72.0,68.0,29.99,North,360,3.0,-999.0,86,-99.99,,,-99.99,,2013-05-08 05:32:00,
2013-05-07 19:42:00,72.0,68.0,29.99,North,360,3.0,-999.0,86,-99.99,,,-99.99,,2013-05-08 05:42:00,
2013-05-07 19:52:00,72.0,68.0,30.00,NNE,19,2.0,-999.0,87,-99.99,,,-99.99,,2013-05-08 05:52:00,
2013-05-07 20:01:00,71.0,67.0,30.00,NNW,347,1.0,-999.0,88,-99.99,,,-99.99,,2013-05-08 06:01:00,
2013-05-07 20:11:00,71.0,67.0,30.00,NNW,347,1.0,-999.0,88,-99.99,,,-99.99,,2013-05-08 06:11:00,
2013-05-07 20:21:00,71.0,67.0,30.01,NNE,13,1.0,-999.0,88,-99.99,,,-99.99,,2013-05-08 06:21:00,
2013-05-07 20:32:00,70.0,67.0,30.01,NNE,15,1.0,-999.0,89,-99.99,,,-99.99,,2013-05-08 06:32:00,
2013-05-07 20:41:00,70.0,67.0,30.01,NNE,15,1.0,-999.0,89,-99.99,,,-99.99,,2013-05-08 06:41:00,
2013-05-07 20:51:00,70.0,67.0,30.02,NE,55,1.0,-999.0,90,-99.99,,,-99.99,,2013-05-08 06:51:00,
2013-05-07 21:01:00,70.0,67.0,30.02,North,355,2.0,-999.0,90,-99.99,,,-99.99,,2013-05-08 07:01:00,
2013-05-07 21:11:00,70.0,67.0,30.02,North,355,2.0,-999.0,90,-99.99,,,-99.99,,2013-05-08 07:11:00,
2013-05-07 21:21:00,69.0,66.0,30.02,North,360,1.0,-999.0,89,-99.99,,,-99.99,,2013-05-08 07:21:00,
2013-05-07 21:31:00,70.0,66.0,30.02,ENE,65,1.0,-999.0,88,-99.99,,,-99.99,,2013-05-08 07:31:00,
2013-05-07 21:41:00,70.0,66.0,30.02,ENE,65,1.0,-999.0,88,-99.99,,,-99.99,,2013-05-08 07:41:00,
2013-05-07 21:52:00,69.0,65.0,30.03,East,97,0.0,-999.0,87,-99.99,,,-99.99,,2013-05-08 07:52:00,
2013-05-07 22:01:00,70.0,65.0,30.03,East,89,1.0,-999.0,85,-99.99,,,-99.99,,2013-05-08 08:01:00,
2013-05-07 22:11:00,70.0,65.0,30.03,East,89,1.0,-999.0,85,-99.99,,,-99.99,,2013-05-08 08:11:00,
2013-05-07 22:21:00,69.0,64.0,30.03,East,83,1.0,-999.0,85,-99.99,,,-99.99,,2013-05-08 08:21:00,
2013-05-07 22:31:00,69.0,64.0,30.04,East,80,1.0,-999.0,85,-99.99,,,-99.99,,2013-05-08 08:31:00,
2013-05-07 22:42:00,69.0,64.0,30.04,East,80,1.0,-999.0,85,-99.99,,,-99.99,,2013-05-08 08:42:00,
2013-05-07 22:51:00,69.0,64.0,30.04,ENE,78,1.0,-999.0,84,-99.99,,,-99.99,,2013-05-08 08:51:00,
2013-05-07 23:02:00,69.0,64.0,30.03,ENE,71,1.0,-999.0,84,-99.99,,,-99.99,,2013-05-08 09:02:00,
2013-05-07 23:11:00,69.0,64.0,30.03,ENE,71,1.0,-999.0,84,-99.99,,,-99.99,,2013-05-08 09:11:00,
2013-05-07 23:21:00,69.0,64.0,30.03,East,96,1.0,-999.0,83,-99.99,,,-99.99,,2013-05-08 09:21:00,
2013-05-07 23:32:00,69.0,64.0,30.03,ENE,72,1.0,-999.0,83,-99.99,,,-99.99,,2013-05-08 09:32:00,
2013-05-07 23:42:00,69.0,64.0,30.03,ENE,72,1.0,-999.0,83,-99.99,,,-99.99,,2013-05-08 09:42:00,
2013-05-07 23:52:00,68.0,63.0,30.03,ENE,78,1.0,-999.0,84,-99.99,,,-99.99,,2013-05-08 09:52:00,